CZ-4 DEB, 26142

Orbit data source: Space-Track

CZ-4 DEB, 26142 is space debris in SSO originally from a launch on Thu, 14 Oct 1999 UTC launched from the Taiyaun Space Center, China (TSC). Debris objects in space refer to the collection of defunct objects orbiting the Earth. Examples of debris include non-operational satellites, rocket bodies, and fragments generated from explosions, collisions, or faulty payload assembly.

Loading next visibility...
Identifier
26142, 1999-057AE
Orbit
SSO
Country
Flag of CNCN / PRC
Related business
Manufacturer
Unknown
Mission
Spacecraft
Bus & Motor
Unknown
Mass
Unknown
Launch date (UTC)
1999-10-14 (26 years ago)
Launch vehicle
Unknown
Launch site
Taiyaun Space Center, China (TSC)
Object type
Payload
Rocket body
Debris
Shape & HBR
Unknown shape, 0.1 m
Radar Cross Section
Small (<0.1 m²)

Expand to show TLE details & history
Last TLE update: 1 day ago

TLE from 1 day ago
0 CZ-4 DEB
1 26142U 99057AE  25340.65231557  .00001432  00000-0  87821-3 0  9992
2 26142  98.7507 229.3102 0297244 304.7908 107.4741 13.87627140297710
Epoch: 2025-12-06T15:39Z
TLE epoch observation values (Epoch: 2025-12-06T15:39:20.065Z)
Latitude
54.61587°
Longitude
-93.65143°
Altitude
1,017.031 km
Speed
7.312 km/s
True Right ascension
14h 27m 26s
True Declination
54° 27' 33"
Sunlit
Object was in daylight at epoch
Visualization orbit readout
Latitude
Unknown
Longitude
Unknown
Altitude
Unknown
Speed
Unknown
Apparent Right ascension
Unknown
Apparent Declination
Unknown
Sunlit
N/A
Visualization observer readout
Local Sidereal Time
19:34:16
Azimuth
Unknown
Elevation
Unknown
Doppler factor
Unknown
Orbital elements
Apogee altitude
1,151.512 km
Perigee altitude
716.805 km
Semi-major axis
7,312.296 km
Eccentricity
0.02972
Inclination
98.7507°
RAAN
229.3102°
Arg. of periapsis
304.7908°
True anomaly
110.68554°
Mean anomaly
107.4741°
Eccentric anomaly
109.08359°
Mean motion
3.47106 °/min
Orbital period
103.71 mins
BSTAR
0.00087821
Loading maneuver chart data...
Computing Atmospheric mass density...
Loading historical data...
Loading historical data...
Loading historical data...
Loading historical data...
Loading historical data...
Loading historical data...
Loading historical data...

Documentation

Showing up to 5 results
|